Hourly Data Report for April 18, 2018

TORONTO CITY
ONTARIO
Current Station Operator: ECCC - MSC

43°40'00.000" N
79°24'00.000" W
112.50 m
6158355
71508
XTO

Download Data

Hourly Data (April 2018)
Hourly Data Report for April 18, 2018
TIME
LST
Temp Definition
°C
Dew Point Definition
°C
Rel Hum Definition
%
Precip. Amount Definition
mm

Wind Dir Definition
10's deg

Wind Spd Definition
km/h
Visibility Definition
km
Stn Press Definition
kPa
Hmdx Definition


Wind Chill Definition


Weather Definition


00:00 1.8 -2.3 74 0.0 LegendMM LegendMM   99.34     LegendNANA
01:00 1.9 -2.4 73 0.0 LegendMM LegendMM   99.34     LegendNANA
02:00 1.8 -2.3 74 0.0 LegendMM LegendMM   99.36     LegendNANA
03:00 1.2 -2.8 75 0.0 LegendMM LegendMM   99.40     LegendNANA
04:00 1.3 -2.5 76 0.0 LegendMM LegendMM   99.43     LegendNANA
05:00 1.4 -2.5 75 0.0 LegendMM LegendMM   99.44     LegendNANA
06:00 1.6 -2.4 75 0.0 LegendMM LegendMM   99.49     LegendNANA
07:00 2.0 -2.3 73 0.0 LegendMM LegendMM   99.51     LegendNANA
08:00 3.4 -2.7 64 0.0 LegendMM LegendMM   99.50     LegendNANA
09:00 4.7 -3.1 57 0.0 LegendMM LegendMM   99.49     LegendNANA
10:00 3.9 -2.7 62 0.0 LegendMM LegendMM   99.53     LegendNANA
11:00 4.0 -2.7 61 0.0 LegendMM LegendMM   99.56     LegendNANA
12:00 4.0 -2.4 63 0.0 LegendMM LegendMM   99.58     LegendNANA
13:00 4.2 -2.6 61 0.0 LegendMM LegendMM   99.56     LegendNANA
14:00 4.2 -2.7 61 0.0 LegendMM LegendMM   99.55     LegendNANA
15:00 4.4 -2.6 60 0.0 LegendMM LegendMM   99.57     LegendNANA
16:00 4.4 -2.8 59 0.0 LegendMM LegendMM   99.56     LegendNANA
17:00 4.0 -2.8 61 0.0 LegendMM LegendMM   99.56     LegendNANA
18:00 3.9 -2.6 63 0.0 LegendMM LegendMM   99.55     LegendNANA
19:00 3.3 -2.3 67 0.0 LegendMM LegendMM   99.51     LegendNANA
20:00 2.7 -2.2 70 0.0 LegendMM LegendMM   99.62     LegendNANA
21:00 2.6 -3.8 63 0.0 LegendMM LegendMM   99.71     LegendNANA
22:00 2.3 -3.4 66 0.0 LegendMM LegendMM   99.66     LegendNANA
23:00 2.4 -3.3 66 0.0 LegendMM LegendMM   99.56     LegendNANA

Notes on Data Quality.

Legend

  • E = Estimated
  • M = Missing
  • NA = Not Available*
  • [empty] = Indicates an unobserved value
Date modified: